STARLINK-32314, 61709

Orbit data source: Space-Track

STARLINK-32314, 61709 is a payload satellite owned by SpaceX/Seattle (US) in LEO that was launched on Wed, 30 Oct 2024 UTC via an FALCON 9 launch vehicle from the Air Force Eastern Test Range (AFETR). Payload-class satellites include a variety of spacecraft equipped with specific instruments for various scientific and technological missions. These include communications satellites like Starlink; space stations such as the ISS; scientific satellites like the Hubble; Earth observation satellites from companies like Planet Labs, Umbra, and HawkEye 360; GPS; miniature CubeSats for education and research; and military/defense satellites.

Loading next visibility...
Identifier
61709, 2024-196C
Orbit
LEO
Last TLE update
16 hours ago
Origin
Manufacturer
SpaceX/Seattle
Mission
Operational Commercial Communications
Bus & Motor
STARLINK V2M, Unknown motor
Mass
730 kg wet, ~700 kg dry
Launch date (UTC)
2024-10-30 (8 months ago)
Launch vehicle
FALCON 9
Launch site
Air Force Eastern Test Range (AFETR)
Object type
Payload
Rocket body
Debris
Shape & HBR
Box + 2 Pan, 29 m
Radar Cross Section
36.964 m², Large (>1 m²)

Expand to show TLE details & history

TLE from 16 hours ago
0 STARLINK-32314
1 61709U 24196C   25181.73480786  .00002469  00000-0  95449-4 0  9991
2 61709  53.1583 191.4692 0001213  69.3500 290.7630 15.30205422 38587
Epoch: 2025-06-30T17:38Z
TLE epoch observation values (Epoch: 2025-06-30T17:38:07.399Z)
Latitude
-0.00006°
Longitude
7.89797°
Altitude
475.804 km
Speed
7.629 km/s
True Right ascension
12h 45m 52s
True Declination
0° 00' 00"
Sunlit
Object was in daylight at epoch
Visualization orbit readout
Latitude
21.71263°
Longitude
22.09941°
Altitude
475.209 km
Speed
7.632 km/s
Apparent Right ascension
11h 44m 08s
Apparent Declination
-9° 28' 30"
Sunlit
Object is in daylight
Visualization observer readout
Local Sidereal Time
21:04:04
Azimuth
299.476° NW
Elevation
-43.238°
Doppler factor
1
Orbital elements
Apogee altitude
476.287 km
Perigee altitude
474.624 km
Semi-major axis
6,853.593 km
Eccentricity
0.00012
Inclination
53.1583°
RAAN
191.4692°
Arg. of periapsis
69.35°
True anomaly
Unknown
Mean anomaly
290.763°
Eccentric anomaly
Unknown
Mean motion
3.8253 °/min
Orbital period
94.11 mins
BSTAR
0.000095449
Loading maneuver chart data...
Loading SW <> Apogee altitude chart data...
Loading historical data...
Loading historical data...
Loading historical data...
Loading historical data...
Loading historical data...
Loading historical data...
Loading historical data...

STARLINK-32314 Visibility forecast

Observer location: undefined°, undefined°

Span
Click to sort rows by Start time (UTC) header in descending order
Start Az.
Max El. time (UTC)
Max El. Az.
Max El.
End time (UTC)
End Az.
6 mins2025-07-01 09:47:47.675Z323.055° NNW2025-07-01 09:50:47.675Z49.813° ENE36.663°2025-07-01 09:53:47.675Z110.421° ESE
4 mins2025-07-01 11:26:47.675Z260.703° W2025-07-01 11:27:47.675Z240.592° WSW17.94°2025-07-01 11:30:47.675Z185.278° SSW
5 mins2025-07-02 02:43:47.675Z202.254° SSW2025-07-02 02:45:47.675Z151.488° SSE35.982°2025-07-02 02:48:47.675Z64.396° ENE
4 mins2025-07-02 04:22:47.675Z298.446° NW2025-07-02 04:23:47.675Z322.691° NNW22.794°2025-07-02 04:26:47.675Z25.844° NE
5 mins2025-07-02 09:18:47.675Z330.302° NNW2025-07-02 09:20:47.675Z22.168° NNE33.795°2025-07-02 09:23:47.675Z102.6° ESE
|